Location: ?????????
(41.9189°N, 44.7292°E)
Time: 00:26:44
(UTC+00:00)

Daily predictions for brighter satellites

Satellite Brightness Start Highest point End
(mag) Time Altitude Azimuth Time Altitude Azimuth Time Altitude Azimuth
COSMOS 2455 4.4 00:30:41 31° ENE 00:30:41 31° ENE 00:34:48 10° ESE
Cosmos 2082 Rocket 4.5 00:29:02 17° NE 00:29:32 18° NE 00:33:14 10° E
USA 215 4.0 00:37:24 10° E 00:43:09 45° NE 00:43:09 45° NE
Cosmos 2278 Rocket 3.5 00:49:48 35° ENE 00:49:48 35° ENE 00:53:25 10° NE
BREEZE-M DEB (TANK) 4.3 01:05:42 33° NE 01:05:42 33° NE 01:11:25 10° E
Cosmos 1833 Rocket 3.2 01:10:28 55° ESE 01:10:28 55° ESE 01:15:02 10° SSE
Cosmos 2221 4.0 01:18:15 35° ESE 01:18:15 35° ESE 01:21:30 10° SSE
Cosmos 1763 Rocket 3.5 01:32:39 72° SSE 01:32:39 72° SSE 01:37:22 10° SSE
Envisat 4.1 01:35:24 10° NNE 01:40:15 44° E 01:45:05 10° S
NOSS 3-2 (A) 4.3 01:36:15 10° S 01:41:21 43° ESE 01:47:04 10° NE
Cosmos 2344 3.5 01:36:12 10° SSW 01:43:49 78° ESE 01:51:25 10° NE
CENTAUR R/B 3.7 01:43:21 10° S 01:48:31 39° ESE 01:54:34 10° NE
Cosmos 1464 Rocket 3.9 01:43:18 10° N 01:49:40 88° W 01:55:55 10° S
Cosmos 1076 Rocket 4.0 01:47:40 10° S 01:51:57 60° E 01:56:16 10° NNE
COSMO-SKYMED 1 3.3 01:52:21 10° SSE 01:56:33 51° ENE 02:00:14 13° N
YAOGAN 6 2.7 01:56:23 10° NNE 02:00:04 73° E 02:03:44 10° S
Cosmos 2084 Rocket 4.2 02:00:07 17° S 02:02:46 45° ESE 02:06:28 10° NE
Gbstr 26 Del rocket 4.0 02:03:16 29° N 02:03:47 30° NNE 02:07:30 10° E
Meteor 2-3 Rocket 4.5 01:59:24 10° S 02:04:50 53° E 02:10:21 10° NNE
COSMOS 2406 3.3 02:10:13 41° WNW 02:11:35 50° WSW 02:17:00 10° S
H-2A R/B 2.5 02:07:55 10° NNE 02:11:38 87° W 02:15:19 10° SSW
USA 238 DEB 4.5 02:06:41 10° S 02:12:50 50° ESE 02:19:16 10° NE
USA 238 4.5 02:06:48 10° S 02:12:56 50° ESE 02:19:23 10° NE
Cosmos 2082 Rocket 2.1 02:10:56 25° NNW 02:14:19 80° WSW 02:19:55 10° SSE
COSMOS 2455 3.1 02:13:53 37° WNW 02:15:27 45° WSW 02:21:07 10° S
Cosmos 2297 4.4 02:10:10 10° S 02:15:46 56° ESE 02:21:22 10° NNE
FALCON 9 DEB 3.9 02:16:05 34° SSE 02:16:40 39° SE 02:19:21 10° ENE
Cosmos 1850 Rocket 4.1 02:14:25 22° SW 02:17:39 51° WNW 02:22:52 10° N
MOS 1-B Rocket 4.0 02:11:01 10° S 02:17:56 74° WSW 02:23:58 10° NNW
Landsat 5 3.9 02:13:52 10° SSE 02:18:19 71° ENE 02:22:50 10° N
BREEZE-M R/B 3.9 02:19:08 20° S 02:19:08 20° S 02:20:53 10° SSE
SKYMED 3 4.5 02:16:14 10° SSE 02:20:34 86° WSW 02:24:34 12° NNW
Cosmos 1842 Rocket 3.8 02:21:39 40° WNW 02:22:29 45° W 02:26:43 10° SSW
USA 215 3.3 02:19:57 10° SE 02:26:23 63° SW 02:30:30 24° WNW
Tiangong 3.4 02:27:41 14° SSW 02:27:41 14° SSW 02:29:06 10° S
Cosmos 2034 Rocket 4.0 02:24:56 10° NNW 02:31:03 61° W 02:37:10 10° S
Cosmos 2278 Rocket 3.0 02:31:43 27° WNW 02:32:18 27° NW 02:37:06 10° N
Cosmos 1943 Rocket 2.3 02:30:56 10° SSW 02:36:36 82° ESE 02:42:18 10° NNE
CZ-2C R/B 4.0 02:32:07 10° NNE 02:36:45 47° E 02:41:29 10° S
CZ-2C R/B 2.7 02:31:18 10° S 02:36:50 65° W 02:42:17 10° NNW
Cosmos 1900 4.4 02:34:39 23° NW 02:37:44 62° WSW 02:42:41 10° SSE
Cosmos 1816 Rocket 4.5 02:31:42 10° SSW 02:37:45 57° WNW 02:43:54 10° N
BREEZE-M DEB (TANK) 3.5 02:40:35 27° NW 02:41:33 34° N 02:46:56 10° ENE
IRAS Rocket 4.5 02:37:08 10° SSE 02:42:38 72° ENE 02:48:08 10° NNW
Cosmos 1782 2.9 02:39:18 10° N 02:43:16 75° E 02:47:12 10° SSE
SKYMED 2 3.8 02:40:26 10° S 02:44:36 46° W 02:48:48 10° NNW
Cosmos 540 Rocket 4.1 02:45:33 19° NW 02:48:23 33° W 02:52:57 10° SSW
Tsikada Rocket 4.0 02:44:31 10° SSW 02:50:33 58° W 02:56:43 10° N
ADEOS 3.5 02:46:03 10° NNE 02:51:18 78° WNW 02:56:30 10° SSW
Cosmos 1833 Rocket 4.1 02:52:14 17° W 02:52:43 17° W 02:56:12 10° SW
Cosmos 2221 4.1 02:55:09 17° W 02:55:09 17° W 02:57:28 10° SW
Cosmos 1933 3.6 02:52:36 10° NNW 02:56:27 45° W 03:00:16 10° SSW
OAO 3 Rocket 4.4 02:53:34 12° WSW 02:57:42 36° S 03:02:13 10° ESE
Cosmos 1634 Rocket 4.0 02:53:01 10° N 02:59:19 78° W 03:05:33 10° S
SJ-7 4.4 02:55:45 10° N 02:59:59 74° WNW 03:04:09 10° SSW
SL-8 R/B 4.4 02:57:06 18° WNW 03:00:13 38° N 03:04:42 10° ENE
Meteor 1-31 Rocket 3.6 03:00:13 10° N 03:03:33 28° WNW 03:06:53 10° SW
Cosmos 2151 3.6 03:00:47 10° SW 03:04:37 32° WNW 03:08:31 10° NNW
Iridium 2 3.6 03:01:29 10° S 03:05:14 70° W 03:09:02 10° N
Meteor 2-13 Rocket 4.4 02:59:43 10° SSW 03:05:48 68° W 03:11:54 10° N
FALCON 9 R/B 4.1 02:49:09 10° W 03:10:45 57° SSW 03:16:37 10° ESE
Cosmos 841 Rocket 4.5 03:08:28 10° NW 03:12:37 26° W 03:16:50 10° SSW
CZ-4C R/B 3.8 03:12:10 10° SSW 03:14:56 26° W 03:17:40 10° NW
Hubble Space Telescope 3.4 03:13:56 10° SSW 03:15:41 12° S 03:17:26 10° SSE
Cosmos 2098 Rocket 2.5 03:13:14 10° SSW 03:16:27 61° W 03:20:21 10° N
Cosmos 1812 2.6 03:12:44 10° NNW 03:16:36 75° W 03:20:25 10° S
H-2A R/B 2.0 03:13:23 10° SSE 03:17:32 87° WSW 03:21:50 10° NNW
Envisat 4.0 03:15:02 10° NNW 03:18:59 23° WNW 03:22:55 10° WSW
SMAP 3.3 03:16:18 10° NNE 03:20:58 75° ESE 03:25:36 10° S
Cosmos 1939 Rocket 2.8 03:18:26 10° N 03:22:25 83° WNW 03:26:20 10° SSW
Cosmos 1766 Rocket 3.5 03:18:12 10° SSW 03:22:33 75° W 03:26:55 10° N
DMSP B5D2-2 4.2 03:21:34 10° S 03:26:41 54° W 03:31:49 10° NNW
Cosmos 2369 Rocket 2.2 03:21:58 10° SSW 03:27:33 86° WNW 03:33:11 10° NNE
Genesis I 4.1 03:23:42 10° NNW 03:27:43 49° NE 03:31:40 10° SE
CZ-2D R/B 4.2 03:26:23 10° NNE 03:30:07 52° E 03:33:48 10° S
Aureole 1 Rocket 3.3 03:28:01 10° WSW 03:30:39 23° WNW 03:33:08 10° N
FALCON 9 DEB 2.9 03:28:23 10° WSW 03:31:12 48° NW 03:34:02 10° NE
NOSS 3-2 (A) 4.0 03:27:06 10° WSW 03:32:15 35° NW 03:38:09 10° NNE
COSMO-SKYMED 1 4.3 03:30:39 10° SW 03:33:00 14° W 03:35:22 10° WNW
PSLV R/B 4.3 03:29:29 10° NNE 03:33:19 65° ESE 03:37:13 10° S
Cosmos 1241 Rocket 4.5 03:27:15 10° NW 03:33:26 71° WSW 03:39:34 10° SSE
NOSS 3-2 (C) 3.5 03:29:55 10° SW 03:35:19 54° NW 03:41:35 10° NNE
Cosmos 1867 3.8 03:31:37 10° NW 03:37:00 59° WSW 03:42:20 10° SSE
